Tracking 34406 objects as of 15-Jun-2026
HD Live streaming from Space Station
objects crossing your sky now

THORAD AGENA D DEB

Track THORAD AGENA D DEB now!
10-day predictions


NORAD ID: 4971
Int'l Code: 1970-025GR
Perigee: 1,068.7 km
Apogee: 1,590.5 km
Inclination: 99.9 °
Period: 112.1 minutes
Semi major axis: 7700 km
RCS: 0.0605 m2 (small)
Launch date: April 8, 1970
Source: United States (US)
Launch site: AIR FORCE WESTERN TEST RANGE (AFWTR)

Note: This is SATELLITE DEBRIS
Your satellite tracking list
Your tracking list is empty




NASA's NSSDC Master Catalog

Two Line Element Set (TLE):
1 04971U 70025GR  26165.54463647  .00000273  00000-0  99784-3 0  9996
2 04971  99.9334  89.4391 0338776 194.8062 349.0479 12.84748745627346
Source of the keplerian elements: AFSPC